Aérodrome :
LOGIN :

S'inscrire | Disclaimer

   EN    FR    IT 

 










Légende :    VFR   VFR Marginal   IFR   IFR Intensif   IFR Très Intensif
Visi : 
Plafond : 
>= 8 km
>= 3000ft
5 à 8 km
1000 à 3000 ft
1500m à 5 km
500 à 1000 ft
800 à 1500m
200 à 500 ft
< 800m
< 200 ft
Symboles :   Orages  Brouillard  Fortes neiges  Fortes précipitations  Vent > 20 kt
SIGMETs :   Divers  Orages  Givrage  Turbulence  Onde Orograph.  Cendres Volcan.







- Altitude de l'aérodrome : 659 ft
- Code IATA : LGG


EBLG - Liège

DERNIER METAR :
  • 220020Z 22007KT CAVOK 19/12 Q1011 NOSIG

METARs EXPIRÉS :
  • 212350Z 21007KT CAVOK 20/12 Q1011 NOSIG
  • 212320Z 21007KT CAVOK 21/12 Q1011 NOSIG
  • 212250Z 17006KT 140V210 CAVOK 21/12 Q1010 NOSIG
  • 212220Z 15004KT 120V240 CAVOK 21/12 Q1010 NOSIG
  • 212150Z 14004KT 110V170 CAVOK 22/12 Q1010 NOSIG

TAF TAF EBLG
Valide du 22 à 00h jusqu'au 23 à 06h UTC


212300Z 2200/2306 18005KT CAVOK
PROB40
TEMPO 2216/2222 21015G25KT 4500 SHRA RA
PROB30
TEMPO 2217/2221 VRB20G35KT 2500 TSRA
PROB30
TEMPO 2300/2306 4500 SHRA
Pas de NOTAMs connus pour ce terrain.



MET'MAP, la Météo Aéronautique d'un coup d'oeil ! - Copyright ORBIFLY Décembre 2007 - Disclaimer

ORBIFLY MET'MAP TEAM :

Programmation & Développement : Alexandra Zaïnal
Conception & Développement : Baudouin d'Aumeries
Co-Programmation & Développement : Marc-Olivier Méhu
Soutien technique & logistique : Manuel Goepfert

Contact : metmap@orbifly.com




SOURCES & CREDITS :

   NOAA